AT491 Weather Reports


time (UTC)temp
C
wind
direction
speed
KPH
gust
KPH
rain 1hr
cm
rain 24hr
cm
rain mn
cm
humidity
%
barometer
mb
20260508023057 10 0 0.0 4.8 0.00 1.73 1.73 46 1017.3
20260508021554 11 0 0.0 3.2 0.00 1.73 1.73 44 1017.0
20260508020056 12 0 0.0 1.6 0.00 1.73 1.73 43 1016.7
20260508014557 13 0 0.0 0.0 0.00 1.78 1.73 39 1016.6
20260508013104 15 0 0.0 0.0 0.00 1.78 1.73 32 1016.3
20260508011556 16 0 0.0 4.8 0.00 1.78 1.73 29 1016.2
20260508010055 17 298 0.0 1.6 0.00 1.78 1.73 25 1016.1
20260508004559 18 312 0.0 8.0 0.00 1.88 1.73 24 1016.1
20260508003103 18 0 1.6 9.7 0.00 1.88 1.73 23 1016.1
20260508001559 19 0 0.0 3.2 0.00 1.88 1.73 21 1016.0
20260508000057 18 274 3.2 12.9 0.00 1.88 1.73 21 1016.0
20260507234610 19 274 0.0 6.4 0.00 1.93 1.73 21 1016.1
20260507233059 18 0 0.0 8.0 0.00 1.93 1.73 23 1016.1
20260507231555 18 0 1.6 9.7 0.00 1.93 1.73 23 1016.3
20260507230105 18 345 1.6 12.9 0.00 1.93 1.73 23 1016.3
20260507224601 18 326 1.6 11.3 0.00 1.96 1.73 22 1016.4
20260507223055 18 0 3.2 14.5 0.00 1.96 1.73 24 1016.6
20260507221601 18 336 1.6 8.0 0.00 1.96 1.73 23 1016.7
20260507220059 18 43 0.0 9.7 0.00 1.96 1.73 23 1016.8
20260507214558 17 300 1.6 14.5 0.00 1.98 1.73 23 1017.1
20260507213106 17 316 6.4 19.3 0.00 1.98 1.73 22 1017.4
20260507211600 17 330 3.2 12.9 0.00 1.98 1.73 21 1017.8
20260507210057 16 199 1.6 9.7 0.00 1.98 1.73 21 1018.2
20260507204603 16 262 6.4 22.5 0.00 2.03 1.73 23 1018.4
20260507203059 16 291 4.8 16.1 0.00 2.03 1.73 23 1018.6
20260507201604 15 283 6.4 17.7 0.00 2.03 1.73 24 1018.7
20260507200059 15 314 4.8 16.1 0.00 2.03 1.73 24 1019.0
20260507194610 15 273 4.8 17.7 0.00 2.06 1.73 26 1019.3
20260507193100 14 355 6.4 19.3 0.00 2.06 1.73 24 1019.5
20260507191617 14 285 4.8 20.9 0.00 2.06 1.73 30 1019.6
20260507190108 13 257 4.8 17.7 0.03 2.06 1.73 32 1019.8
20260507184608 13 275 3.2 20.9 0.13 2.08 1.73 37 1019.8
20260507183105 12 298 6.4 19.3 0.25 2.08 1.73 35 1020.0
20260507181554 12 351 4.8 11.3 0.43 2.08 1.73 44 1020.3
20260507180056 11 328 3.2 9.7 0.58 2.06 1.70 42 1020.5
20260507174557 10 307 1.6 9.7 0.64 2.01 1.60 43 1020.7
20260507173057 10 0 0.0 11.3 0.64 1.88 1.47 45 1020.8
20260507171555 9 0 1.6 12.9 0.61 1.70 1.30 45 1021.0
20260507170059 8 293 3.2 12.9 0.61 1.52 1.12 46 1021.2
20260507164629 7 329 3.2 12.9 0.61 1.40 0.97 47 1021.3
20260507163056 7 312 4.8 16.1 0.58 1.27 0.84 43 1021.2
20260507161601 7 327 6.4 14.5 0.58 1.12 0.69 43 1021.2
20260507160056 7 354 3.2 12.9 0.48 0.94 0.51 48 1021.5
20260507154555 6 332 0.0 8.0 0.36 0.81 0.36 56 1021.6
20260507153056 6 306 3.2 12.9 0.25 0.71 0.25 52 1021.6
20260507151601 6 275 4.8 14.5 0.10 0.56 0.10 48 1021.6
20260507150057 5 342 3.2 12.9 0.03 0.48 0.03 49 1021.7
20260507144600 5 328 1.6 11.3 0.00 0.46 0.00 54 1021.6
20260507143110 5 326 4.8 14.5 0.00 0.46 0.00 50 1021.7
20260507141611 4 254 3.2 12.9 0.00 0.46 0.00 53 1021.6
20260507140056 3 290 3.2 8.0 0.00 0.46 0.00 58 1021.9
20260507134556 2 288 0.0 8.0 0.00 0.46 0.00 60 1022.1
20260507133109 2 307 1.6 8.0 0.00 0.46 0.00 66 1022.2
20260507131612 1 302 1.6 6.4 0.00 0.46 0.00 68 1022.2
20260507130059 0 0 0.0 3.2 0.00 0.46 0.00 73 1022.0
20260507124558 -1 0 0.0 1.6 0.00 0.46 0.00 79 1021.8
20260507123112 -3 0 0.0 1.6 0.00 0.46 0.00 84 1021.5
20260507121556 -4 0 0.0 0.0 0.00 0.46 0.00 84 1021.3
20260507120056 -4 0 0.0 1.6 0.00 0.46 0.00 83 1021.3
20260507034558 -4 0 0.0 1.6 0.00 0.46 0.46 90 1020.7
20260507033059 -5 0 0.0 0.0 0.00 0.46 0.46 91 1020.7
20260507031559 -5 0 0.0 0.0 0.00 0.46 0.46 89 1020.7
20260507030058 -5 0 0.0 0.0 0.00 0.46 0.46 89 1020.5
20260507024559 -4 0 0.0 0.0 0.00 0.46 0.46 88 1020.3